The Dalles, WA

8:40 PM PDT on April 27, 2017 (GMT -0700)
Columbia Gorge Regional-The Dalles

Weather History for KDLS - April, 2013

Change the Weather History Date:

Monday, April 29, 2013

  Actual Average Record
Temperature  
Mean Temperature 54 °F -  
Max Temperature 62 °F 69 °F 90 °F (1957)
Min Temperature 46 °F 43 °F 27 °F (1952)
Degree Days  
Heating Degree Days 10    
Growing Degree Days 4 (Base 50)    
Moisture  
Dew Point 33 °F    
Average Humidity 46    
Maximum Humidity 71    
Minimum Humidity 25    
Precipitation  
Precipitation 0.00 in - - ()
Sea Level Pressure  
Sea Level Pressure 30.03 in    
Wind  
Wind Speed 18 mph (WNW)    
Max Wind Speed 31 mph    
Max Gust Speed 43 mph    
Visibility 10 miles    
Events      
Averages and records for this station are not official NWS values.
T = Trace of Precipitation, MM = Missing Value Source: NWS Daily Summary

Daily Weather History Graph

Daily Weather History Graph

Search for Another Location

Airport or City:

Trip Planner

Search our weather history database for the weather conditions in past years. The results will help you decide how hot, cold, wet, or windy it might be!

Date:

Astronomy

Apr. 29, 2013 Rise Set
Actual Time 5:55 AM PDT 8:09 PM PDT
Civil Twilight 5:22 AM PDT 8:42 PM PDT
Nautical Twilight 4:42 AM PDT 9:23 PM PDT
Astronomical Twilight 3:56 AM PDT 10:08 PM PDT
Moon No Moon Rise 9:16 AM PDT (4/29)
Length of Visible Light 15h 19m
Length of Day
14h 14m
Waning Gibbous, 79% of the Moon is Illuminated
Apr 29
Waning Gibbous
May 2
Last Quarter
May 9
New
May 17
First Quarter
May 24
Full

Hourly Weather History & Observations

Time (PDT) Temp. Windchill Dew Point Humidity Pressure Visibility Wind Dir Wind Speed Gust Speed Precip Events Conditions
12:53 AM 57.0 °F - 39.0 °F 51% 29.98 in 10.0 mi West 17.3 mph 24.2 mph N/A   Overcast
1:53 AM 54.0 °F - 43.0 °F 66% 29.96 in 10.0 mi WNW 11.5 mph 23.0 mph N/A   Overcast
2:53 AM 53.1 °F - 43.0 °F 69% 29.95 in 10.0 mi NNE 5.8 mph - N/A   Mostly Cloudy
3:53 AM 57.0 °F - 42.1 °F 57% 29.93 in 10.0 mi WNW 16.1 mph 28.8 mph N/A   Clear
4:53 AM 55.0 °F - 43.0 °F 64% 29.93 in 10.0 mi WNW 9.2 mph 20.7 mph N/A   Clear
5:53 AM 53.1 °F - 44.1 °F 71% 29.94 in 10.0 mi West 17.3 mph 28.8 mph N/A   Scattered Clouds
6:53 AM 52.0 °F - 39.9 °F 63% 29.96 in 10.0 mi West 21.9 mph 33.4 mph N/A   Partly Cloudy
7:53 AM 52.0 °F - 36.0 °F 54% 29.99 in 10.0 mi WNW 27.6 mph 42.6 mph N/A   Clear
8:53 AM 52.0 °F - 36.0 °F 54% 30.03 in 10.0 mi WNW 21.9 mph 36.8 mph N/A   Partly Cloudy
9:53 AM 52.0 °F - 33.1 °F 49% 30.04 in 10.0 mi WNW 29.9 mph 42.6 mph N/A   Clear
10:53 AM 55.0 °F - 33.1 °F 43% 30.06 in 10.0 mi WNW 21.9 mph 31.1 mph N/A   Mostly Cloudy
11:53 AM 57.9 °F - 34.0 °F 41% 30.08 in 10.0 mi NW 20.7 mph 29.9 mph N/A   Scattered Clouds
12:53 PM 57.9 °F - 34.0 °F 41% 30.07 in 10.0 mi NW 24.2 mph 32.2 mph N/A   Partly Cloudy
1:53 PM 60.1 °F - 30.0 °F 32% 30.06 in 10.0 mi NW 25.3 mph 40.3 mph N/A   Clear
2:53 PM 61.0 °F - 28.0 °F 29% 30.05 in 10.0 mi WNW 31.1 mph 40.3 mph N/A   Clear
3:53 PM 60.1 °F - 26.1 °F 27% 30.05 in 10.0 mi WNW 24.2 mph 41.4 mph N/A   Clear
4:53 PM 60.1 °F - 24.1 °F 25% 30.06 in 10.0 mi West 24.2 mph 34.5 mph N/A   Partly Cloudy
5:53 PM 59.0 °F - 24.1 °F 26% 30.07 in 10.0 mi WNW 24.2 mph 42.6 mph N/A   Partly Cloudy
6:53 PM 55.9 °F - 27.0 °F 33% 30.08 in 10.0 mi NW 9.2 mph 25.3 mph N/A   Overcast
7:53 PM 53.1 °F - 24.1 °F 32% 30.08 in 10.0 mi West 23.0 mph 27.6 mph N/A   Mostly Cloudy
8:53 PM 51.1 °F - 26.1 °F 38% 30.10 in 10.0 mi WNW 17.3 mph 25.3 mph N/A   Clear
9:53 PM 48.9 °F - 25.0 °F 39% 30.11 in 10.0 mi WNW 11.5 mph 21.9 mph N/A   Clear
10:53 PM 48.0 °F - 26.1 °F 42% 30.11 in 10.0 mi WNW 19.6 mph 29.9 mph N/A   Clear
11:53 PM 46.0 °F 38.3 °F 27.0 °F 47% 30.12 in 10.0 mi WNW 20.7 mph 27.6 mph N/A   Clear